Overview Statistics Trail Chart Weather Telemetry Raw packets
 

This is the latest recevied weather packets stored in our database for station/object KN6WGU. If no packets are shown the sender has not sent any weather packets the latest 10 day(s).

<< 108 109 110 111 112 113 114 >>
Time Temp. Humidity Pressure Rain* Wind** Luminosity Snow
1787792987 23.33° C 70% 1006 hPa 0 mm - 0 W/m² -
1787792682 23.33° C 70% 1005.9 hPa 0 mm - 0 W/m² -
1787792379 23.33° C 71% 1006.1 hPa 0 mm - 0 W/m² -
1787792078 23.33° C 70% 1005.8 hPa 0 mm - 0 W/m² -
1787791777 22.78° C 71% 1005.8 hPa 0 mm - 0 W/m² -
1787791472 23.33° C 70% 1005.7 hPa 0 mm - 0 W/m² -
1787791167 23.33° C 70% 1005.7 hPa 0 mm - 0 W/m² -
1787790863 23.33° C 69% 1005.6 hPa 0 mm - 0 W/m² -
1787790558 23.33° C 68% 1005.8 hPa 0 mm - 0 W/m² -
1787790254 23.89° C 68% 1005.7 hPa 0 mm - 0 W/m² -
1787789949 23.89° C 68% 1006 hPa 0 mm - 0 W/m² -
1787789648 23.33° C 69% 1005.9 hPa 0 mm - 1 W/m² -
1787789343 23.89° C 69% 1005.7 hPa 0 mm - 1 W/m² -
1787789037 23.89° C 68% 1005.6 hPa 0 mm - 3 W/m² -
1787788735 23.89° C 67% 1005.7 hPa 0 mm - 4 W/m² -
1787788430 23.89° C 66% 1005.9 hPa 0 mm - 7 W/m² -
1787788124 24.44° C 67% 1005.6 hPa 0 mm - 8 W/m² -
1787787819 24.44° C 66% 1005.7 hPa 0 mm - 9 W/m² -
1787787518 24.44° C 65% 1005.7 hPa 0 mm - 16 W/m² -
1787787213 24.44° C 65% 1005.5 hPa 0 mm - 15 W/m² -
1787786913 25° C 64% 1005.5 hPa 0 mm - 17 W/m² -
1787786608 25° C 63% 1005.5 hPa 0 mm - 22 W/m² -
1787786302 25° C 63% 1005.6 hPa 0 mm - 27 W/m² -
1787785999 25° C 63% 1005.7 hPa 0 mm - 32 W/m² -
1787785699 25.56° C 62% 1005.5 hPa 0 mm - 34 W/m² -

* Rain latest hour (hover to see other rain measurements)
** Current wind speed in m/s (hover to see current wind gust speed)